• In Deutschland
  • Länderverzeichnis
  • Für 7 Tage
  • Wassertemperatur
  • Satellitenkarten
  • Wetterkarte
  • Widgets
  • user-avatar
    Anmelden

    Stündliche Wetter Villa María

    Heute, 20 Januar, Samstag

    Zeit Temperatur Niederschläge Wind Luftdruck Luftfeuchtigkeit
    00:00 +25°C° 0 mm 2 m/S 742 mmHg 37%
    01:00 +24°C° 0 mm 2 m/S 742 mmHg 38%
    02:00 +24°C° 0 mm 2 m/S 742 mmHg 40%
    03:00 +23°C° 0 mm 1 m/S 742 mmHg 40%
    04:00 +23°C° 0 mm 1 m/S 741 mmHg 41%
    05:00 +22°C° 0 mm 1 m/S 741 mmHg 42%
    06:00 +25°C° 0 mm 1 m/S 741 mmHg 38%
    07:00 +27°C° 0 mm 2 m/S 742 mmHg 34%
    08:00 +30°C° 0 mm 2 m/S 742 mmHg 30%
    09:00 +33°C° 0 mm 3 m/S 742 mmHg 27%
    10:00 +35°C° 0 mm 4 m/S 742 mmHg 23%
    11:00 +39°C° 0 mm 5 m/S 742 mmHg 20%
    12:00 +39°C° 0 mm 5 m/S 741 mmHg 19%
    13:00 +40°C° 0 mm 5 m/S 740 mmHg 18%
    14:00 +40°C° 0 mm 5 m/S 740 mmHg 18%
    15:00 +40°C° 0 mm 5 m/S 739 mmHg 19%
    16:00 +39°C° 0 mm 5 m/S 739 mmHg 20%
    17:00 +37°C° 0 mm 5 m/S 739 mmHg 22%
    18:00 +35°C° 0 mm 4 m/S 739 mmHg 28%
    19:00 +33°C° 0 mm 4 m/S 739 mmHg 34%
    20:00 +29°C° 0 mm 3 m/S 739 mmHg 41%
    21:00 +28°C° 0 mm 3 m/S 740 mmHg 47%
    22:00 +26°C° 0 mm 3 m/S 740 mmHg 54%
    23:00 +25°C° 0 mm 3 m/S 741 mmHg 61%

    Morgen, 21 Januar, Sonntag

    Zeit Temperatur Niederschläge Wind Luftdruck Luftfeuchtigkeit
    00:00 +24°C° 0 mm 3 m/S 740 mmHg 62%
    01:00 +24°C° 0 mm 3 m/S 740 mmHg 63%
    02:00 +22°C° 0 mm 3 m/S 739 mmHg 65%
    03:00 +22°C° 0 mm 3 m/S 739 mmHg 62%
    04:00 +21°C° 0 mm 3 m/S 739 mmHg 60%
    05:00 +21°C° 0 mm 2 m/S 739 mmHg 58%
    06:00 +25°C° 0 mm 2 m/S 739 mmHg 50%
    07:00 +27°C° 0 mm 2 m/S 740 mmHg 42%
    08:00 +30°C° 0 mm 2 m/S 740 mmHg 35%
    09:00 +33°C° 0 mm 3 m/S 740 mmHg 31%
    10:00 +35°C° 0 mm 4 m/S 740 mmHg 27%
    11:00 +37°C° 0 mm 4 m/S 739 mmHg 23%
    12:00 +37°C° 0 mm 4 m/S 739 mmHg 22%
    13:00 +38°C° 0 mm 4 m/S 738 mmHg 20%
    14:00 +40°C° 0 mm 4 m/S 737 mmHg 19%
    15:00 +40°C° 0 mm 4 m/S 737 mmHg 19%
    16:00 +39°C° 0 mm 3 m/S 736 mmHg 19%
    17:00 +39°C° 0 mm 3 m/S 736 mmHg 18%
    18:00 +36°C° 0 mm 3 m/S 736 mmHg 22%
    19:00 +32°C° 0 mm 2 m/S 736 mmHg 25%
    20:00 +30°C° 0 mm 2 m/S 736 mmHg 29%
    21:00 +29°C° 0 mm 2 m/S 736 mmHg 31%
    22:00 +28°C° 0 mm 2 m/S 737 mmHg 34%
    23:00 +27°C° 0 mm 2 m/S 737 mmHg 36%

    übermorgen, 22 Januar, Montag

    Zeit Temperatur Niederschläge Wind Luftdruck Luftfeuchtigkeit
    00:00 +26°C° 0 mm 2 m/S 737 mmHg 39%
    01:00 +26°C° 0 mm 2 m/S 737 mmHg 43%
    02:00 +25°C° 0 mm 3 m/S 736 mmHg 46%
    03:00 +25°C° 0 mm 2 m/S 736 mmHg 47%
    04:00 +24°C° 0 mm 2 m/S 736 mmHg 48%
    05:00 +24°C° 0 mm 2 m/S 736 mmHg 49%
    06:00 +27°C° 0 mm 2 m/S 736 mmHg 45%
    07:00 +29°C° 0 mm 2 m/S 737 mmHg 41%
    08:00 +32°C° 0 mm 2 m/S 737 mmHg 37%
    09:00 +34°C° 0 mm 2 m/S 737 mmHg 32%
    10:00 +36°C° 0 mm 3 m/S 736 mmHg 28%
    11:00 +38°C° 0 mm 3 m/S 736 mmHg 24%
    12:00 +38°C° 0 mm 3 m/S 735 mmHg 23%
    13:00 +39°C° 0 mm 2 m/S 735 mmHg 22%
    14:00 +39°C° 0 mm 2 m/S 734 mmHg 20%
    15:00 +39°C° 0 mm 2 m/S 734 mmHg 21%
    16:00 +39°C° 0 mm 2 m/S 734 mmHg 21%
    17:00 +39°C° 0 mm 2 m/S 734 mmHg 21%
    18:00 +37°C° 0 mm 2 m/S 734 mmHg 24%
    19:00 +35°C° 0 mm 2 m/S 734 mmHg 28%
    20:00 +31°C° 0 mm 2 m/S 734 mmHg 31%
    21:00 +30°C° 0 mm 2 m/S 735 mmHg 34%
    22:00 +29°C° 0 mm 2 m/S 735 mmHg 37%
    23:00 +28°C° 0 mm 2 m/S 735 mmHg 40%

    23 Januar, Dienstag

    Zeit Temperatur Niederschläge Wind Luftdruck Luftfeuchtigkeit
    00:00 +27°C° 0,1 mm 2 m/S 735 mmHg 45%
    01:00 +26°C° 0,1 mm 2 m/S 735 mmHg 49%
    02:00 +24°C° 0,1 mm 2 m/S 735 mmHg 54%
    03:00 +24°C° 0,1 mm 2 m/S 735 mmHg 58%
    04:00 +22°C° 0,1 mm 3 m/S 735 mmHg 62%
    05:00 +21°C° 0,1 mm 3 m/S 735 mmHg 65%
    06:00 +24°C° 0 mm 3 m/S 736 mmHg 60%
    07:00 +26°C° 0 mm 3 m/S 736 mmHg 54%
    08:00 +28°C° 0 mm 2 m/S 737 mmHg 48%
    09:00 +31°C° 0 mm 2 m/S 737 mmHg 41%
    10:00 +35°C° 0 mm 1 m/S 736 mmHg 33%
    11:00 +39°C° 0 mm 1 m/S 736 mmHg 26%
    12:00 +41°C° 0 mm 1 m/S 736 mmHg 23%
    13:00 +42°C° 0 mm 1 m/S 735 mmHg 20%
    14:00 +43°C° 0 mm 1 m/S 734 mmHg 17%
    15:00 +43°C° 0 mm 1 m/S 734 mmHg 17%
    16:00 +42°C° 0 mm 1 m/S 734 mmHg 17%
    17:00 +41°C° 0 mm 1 m/S 733 mmHg 18%
    18:00 +38°C° 0,3 mm 3 m/S 734 mmHg 27%
    19:00 +35°C° 0,3 mm 5 m/S 734 mmHg 36%
    20:00 +30°C° 0,3 mm 7 m/S 735 mmHg 44%
    21:00 +29°C° 0,7 mm 6 m/S 735 mmHg 47%
    22:00 +29°C° 0,7 mm 5 m/S 736 mmHg 50%
    23:00 +28°C° 0,7 mm 5 m/S 737 mmHg 53%

    24 Januar, Mittwoch

    Zeit Temperatur Niederschläge Wind Luftdruck Luftfeuchtigkeit
    00:00 +27°C° 0,4 mm 5 m/S 737 mmHg 55%
    01:00 +27°C° 0,4 mm 5 m/S 736 mmHg 58%
    02:00 +26°C° 0,4 mm 5 m/S 736 mmHg 60%
    03:00 +26°C° 0,1 mm 4 m/S 736 mmHg 58%
    04:00 +26°C° 0,1 mm 3 m/S 736 mmHg 57%
    05:00 +26°C° 0,1 mm 2 m/S 737 mmHg 55%
    06:00 +27°C° 0 mm 3 m/S 737 mmHg 53%
    07:00 +28°C° 0 mm 3 m/S 738 mmHg 51%
    08:00 +29°C° 0 mm 4 m/S 739 mmHg 48%
    09:00 +33°C° 0 mm 4 m/S 739 mmHg 40%
    10:00 +36°C° 0 mm 4 m/S 739 mmHg 32%
    11:00 +38°C° 0 mm 4 m/S 739 mmHg 24%
    12:00 +40°C° 0 mm 4 m/S 739 mmHg 22%
    13:00 +41°C° 0 mm 4 m/S 739 mmHg 21%
    14:00 +42°C° 0 mm 4 m/S 738 mmHg 19%
    15:00 +41°C° 0,1 mm 4 m/S 738 mmHg 21%
    16:00 +40°C° 0,1 mm 5 m/S 738 mmHg 24%
    17:00 +39°C° 0,1 mm 5 m/S 738 mmHg 27%
    18:00 +35°C° 0,3 mm 5 m/S 738 mmHg 36%
    19:00 +32°C° 0,3 mm 5 m/S 739 mmHg 45%
    20:00 +28°C° 0,3 mm 4 m/S 740 mmHg 54%
    21:00 +26°C° 0,2 mm 5 m/S 740 mmHg 61%
    22:00 +25°C° 0,2 mm 5 m/S 741 mmHg 68%
    23:00 +22°C° 0,2 mm 5 m/S 742 mmHg 76%

    25 Januar, Donnerstag

    Zeit Temperatur Niederschläge Wind Luftdruck Luftfeuchtigkeit
    00:00 +22°C° 0,5 mm 4 m/S 742 mmHg 79%
    01:00 +21°C° 0,5 mm 3 m/S 742 mmHg 83%
    02:00 +20°C° 0,5 mm 2 m/S 742 mmHg 87%
    03:00 +20°C° 0,7 mm 2 m/S 742 mmHg 88%
    04:00 +19°C° 0,7 mm 2 m/S 743 mmHg 88%
    05:00 +19°C° 0,7 mm 2 m/S 743 mmHg 89%
    06:00 +20°C° 0,5 mm 2 m/S 743 mmHg 84%
    07:00 +20°C° 0,5 mm 2 m/S 744 mmHg 79%
    08:00 +21°C° 0,5 mm 3 m/S 744 mmHg 74%
    09:00 +24°C° 0 mm 3 m/S 744 mmHg 64%
    10:00 +27°C° 0 mm 3 m/S 743 mmHg 54%
    11:00 +29°C° 0 mm 3 m/S 743 mmHg 43%
    12:00 +30°C° 0 mm 3 m/S 742 mmHg 40%
    13:00 +33°C° 0 mm 4 m/S 742 mmHg 36%
    14:00 +34°C° 0 mm 4 m/S 741 mmHg 32%
    15:00 +34°C° 0 mm 4 m/S 740 mmHg 31%
    16:00 +35°C° 0 mm 4 m/S 740 mmHg 30%
    17:00 +35°C° 0 mm 4 m/S 739 mmHg 28%
    18:00 +33°C° 0 mm 3 m/S 739 mmHg 32%
    19:00 +30°C° 0 mm 3 m/S 740 mmHg 36%
    20:00 +28°C° 0 mm 2 m/S 740 mmHg 40%
    21:00 +27°C° 0 mm 2 m/S 740 mmHg 41%
    22:00 +27°C° 0 mm 2 m/S 740 mmHg 42%
    23:00 +26°C° 0 mm 2 m/S 741 mmHg 44%
    Mehr zeigen